Weather Roundup
Issued by NWS Chicago, IL

Home | Current Version | Previous Version | Graphics & Text | Print | Product List | Glossary On
Versions: 1 2 3 4 5 6 7 8 9 10 11 12 13 14 15 16 17 18 19 20 21 22 23 24 25 26 27 28 29 30 31 32 33 34 35 36 37 38 39 40 41 42 43 44 45 46 47 48 49 50
000
NZUS59 KLOT 291308
HRRLOT

CHICAGO AREA WEATHER ROUNDUP
NATIONAL WEATHER SERVICE CHICAGO/ROMEOVILLE IL
800 AM CDT SAT APR 29 2017

NOTE: "FAIR" INDICATES FEW OR NO CLOUDS BELOW 12,000 FEET WITH NO
SIGNIFICANT WEATHER AND/OR OBSTRUCTIONS TO VISIBILITY.

* THESE STATIONS ARE NOT UNDER NWS QUALITY CONTROL. THEY ALSO MAY NOT
  REPORT WEATHER SUCH AS PRECIPITATION OR FOG.

ILZ005-006-012>014-019>023-291400-
NORTHEAST ILLINOIS

CITY           SKY/WX    TMP DP  RH WIND       PRES   REMARKS
OHARE          CLOUDY    45  30  55 NE17G26   30.15F
MIDWAY         CLOUDY    46  37  71 NE18G28   30.14F
AURORA         CLOUDY    47  35  63 NE21G30   30.13S
LANSING*       CLOUDY    46  40  81 NE15G22   30.13R
JOLIET*        CLOUDY    47  38  70 NE18G29   30.11R
WAUKEGAN       CLOUDY    42  35  76 NE16G26   30.17R
DUPAGE AIRPORT CLOUDY    45  34  65 NE23      30.14S
WHEELING       CLOUDY    44  32  62 NE16G30   30.17S
KANKAKEE*      CLOUDY    46  40  79 NE15G25   30.09R
MORRIS*        CLOUDY    46  38  71 NE7       30.10R
LEWIS AIRPORT* CLOUDY    46  39  78 NE18G29   30.12R
NORTHERLY ISL    N/A     44  38  79 N20         N/A
$$

WIZ051-052-058>065-066-070>072-291400-
SOUTHEAST WISCONSIN

CITY           SKY/WX    TMP DP  RH WIND       PRES   REMARKS
MILWAUKEE      PTSUNNY   41  33  73 N18G28    30.21R
KENOSHA*       CLOUDY    42  34  73 NE15G24   30.19R
RACINE*        CLOUDY    40  32  73 NE21G30   30.22R
WAUKESHA       MOSUNNY   37  30  75 NE12G22   30.22R
WEST BEND      MOSUNNY   37  30  75 NE10G20   30.25R
$$

INZ001>003-010>013-019-020-291400-
NORTHWEST INDIANA

CITY           SKY/WX    TMP DP  RH WIND       PRES   REMARKS
GARY*          CLOUDY    46  39  76 N16G30    30.15S
MICHIGAN CITY* NOT AVBL
RENSSELAER*    NOT AVBL
VALPARAISO     CLOUDY    49  44  83 N9        30.10R
$$

LMZ740>746-291400-
SOUTHERN LAKE MICHIGAN

STATION/POSITION TIME  SKY/WX   TEMP WIND        PRES    VSBY
                                AIR  DIR/SP/G
                 (UTC)          (F)  (DEG/KT/KT) (MB)    (MI)
HARRISON CRIB    1230            44   10/ 21/ 23   N/A
BURNHAM HARBOR   1300            44  360/ 19/ 20   N/A
CALUMET HARBOR   1242            45  350/ 15/ 22 1019.9F
BURNS HARBOR     1240            45   20/ 18/ 21 1020.0F
MICHIGAN CITY    1240            44   10/ 21/ 23   N/A
$$

ABBREVIATIONS USED IN REMARKS
   TC - TEMPERATURE IN CELSIUS
  WCI - WIND CHILL INDEX
   HX - HEAT INDEX
  VSB - VISIBILITY
$$



USA.gov is the U.S. government's official web portal to all federal, state and local government web resources and services.